TimeMST,TemperatureF,Dew PointF,Humidity,Sea Level PressureIn,VisibilityMPH,Wind Direction,Wind SpeedMPH,Gust SpeedMPH,PrecipitationIn,Events,Conditions,WindDirDegrees,DateUTC
12:27 AM,15.8,12.2,86,30.21,10.0,Calm,Calm,-,N/A,,Overcast,0,2012-12-09 07:27:00
12:55 AM,15.1,12.0,88,30.34,10.0,Calm,Calm,-,N/A,,Overcast,0,2012-12-09 07:55:00
1:23 AM,15.8,12.2,86,30.22,10.0,Calm,Calm,-,N/A,,Overcast,0,2012-12-09 08:23:00
1:55 AM,15.1,12.0,88,30.36,9.0,Calm,Calm,-,0.00,,Overcast,0,2012-12-09 08:55:00
2:11 AM,14.0,12.2,93,30.23,10.0,Calm,Calm,-,N/A,,Overcast,0,2012-12-09 09:11:00
2:55 AM,12.0,10.0,92,30.37,6.0,Calm,Calm,-,N/A,,Partly Cloudy,0,2012-12-09 09:55:00
3:42 AM,8.6,8.6,100,30.25,2.5,Calm,Calm,-,N/A,,Mostly Cloudy,0,2012-12-09 10:42:00
3:52 AM,10.4,8.6,92,30.25,10.0,Calm,Calm,-,N/A,,Mostly Cloudy,0,2012-12-09 10:52:00
3:55 AM,10.9,9.0,92,30.38,10.0,Calm,Calm,-,N/A,,Overcast,0,2012-12-09 10:55:00
4:44 AM,12.2,10.4,92,30.26,10.0,Calm,Calm,-,N/A,,Overcast,0,2012-12-09 11:44:00
4:53 AM,12.2,10.4,92,30.26,10.0,Calm,Calm,-,N/A,,Overcast,0,2012-12-09 11:53:00
4:55 AM,12.9,10.9,92,30.40,10.0,Calm,Calm,-,N/A,,Overcast,0,2012-12-09 11:55:00
5:09 AM,14.0,10.4,86,30.26,10.0,Calm,Calm,-,N/A,,Overcast,0,2012-12-09 12:09:00
5:16 AM,14.0,10.4,86,30.26,10.0,Calm,Calm,-,N/A,,Overcast,0,2012-12-09 12:16:00
5:25 AM,14.0,12.2,93,30.27,10.0,Calm,Calm,-,N/A,,Overcast,0,2012-12-09 12:25:00
5:55 AM,16.0,12.9,88,30.40,10.0,West,4.6,-,N/A,,Overcast,280,2012-12-09 12:55:00
6:55 AM,17.1,14.0,88,30.41,10.0,West,4.6,-,N/A,,Overcast,270,2012-12-09 13:55:00
7:35 AM,17.6,15.8,93,30.28,10.0,Calm,Calm,-,N/A,,Overcast,0,2012-12-09 14:35:00
7:55 AM,16.0,14.0,92,30.44,10.0,Calm,Calm,-,N/A,,Overcast,0,2012-12-09 14:55:00
8:55 AM,17.1,14.0,88,30.43,10.0,SW,4.6,-,N/A,,Overcast,230,2012-12-09 15:55:00
9:55 AM,19.0,15.1,85,30.40,10.0,South,6.9,-,N/A,,Overcast,190,2012-12-09 16:55:00
10:55 AM,19.9,17.1,89,30.40,10.0,South,4.6,-,N/A,,Partly Cloudy,180,2012-12-09 17:55:00
11:55 AM,21.9,18.0,85,30.38,10.0,South,8.1,-,N/A,,Overcast,170,2012-12-09 18:55:00
12:55 PM,23.0,18.0,81,30.35,10.0,South,6.9,-,N/A,,Mostly Cloudy,170,2012-12-09 19:55:00
1:55 PM,25.0,19.0,78,30.34,10.0,South,8.1,-,N/A,,Overcast,170,2012-12-09 20:55:00
2:55 PM,25.0,19.0,78,30.33,10.0,SSE,8.1,-,N/A,,Overcast,160,2012-12-09 21:55:00
3:55 PM,25.0,18.0,75,30.33,10.0,SSE,9.2,-,N/A,,Overcast,160,2012-12-09 22:55:00
4:55 PM,24.1,18.0,77,30.32,10.0,South,5.8,-,N/A,,Overcast,170,2012-12-09 23:55:00
5:55 PM,24.1,18.0,77,30.30,10.0,South,5.8,-,0.00,,Overcast,180,2012-12-10 00:55:00
6:50 PM,24.8,19.4,80,30.14,5.0,South,10.4,-,0.00,Snow,Light Snow,180,2012-12-10 01:50:00
6:55 PM,24.1,19.9,84,30.27,5.0,South,10.4,-,0.00,Snow,Light Snow,180,2012-12-10 01:55:00
7:34 PM,24.8,21.2,86,30.15,6.0,SSE,9.2,-,0.00,Snow,Light Snow,150,2012-12-10 02:34:00
7:55 PM,24.1,21.0,88,30.27,9.0,South,9.2,-,0.00,Snow,Light Snow,170,2012-12-10 02:55:00
8:51 PM,24.8,21.2,86,30.11,4.0,SSE,10.4,-,0.01,Snow,Light Snow,160,2012-12-10 03:51:00
8:55 PM,24.1,21.0,88,30.25,3.0,South,9.2,-,0.01,Snow,Light Snow,170,2012-12-10 03:55:00